Time,TemperatureF,DewpointF,PressureIn,WindDirection,WindDirectionDegrees,WindSpeedMPH,WindSpeedGustMPH,Humidity,HourlyPrecipIn,Conditions,Clouds,dailyrainin,SoftwareType,DateUTC
2013-07-03 00:09:00,75.6,51.0,31.88,WNW,302,5.0,11.0,43,0.00,,,0.00,weatherlink.com 1.10,2013-07-03 06:09:00,
2013-07-03 00:24:00,75.6,51.0,31.88,NW,311,1.0,9.0,43,0.00,,,0.00,weatherlink.com 1.10,2013-07-03 06:24:00,
2013-07-03 00:39:00,75.0,51.0,31.88,NNE,15,2.0,8.0,43,0.00,,,0.00,weatherlink.com 1.10,2013-07-03 06:39:00,
2013-07-03 00:54:00,74.8,53.0,31.87,NNE,25,3.0,4.0,46,0.00,,,0.00,weatherlink.com 1.10,2013-07-03 06:54:00,
2013-07-03 01:09:00,74.6,52.0,31.88,North,350,2.0,4.0,46,0.00,,,0.00,weatherlink.com 1.10,2013-07-03 07:09:00,
2013-07-03 01:24:00,74.4,48.0,31.88,WNW,290,3.0,6.0,39,0.00,,,0.00,weatherlink.com 1.10,2013-07-03 07:24:00,
2013-07-03 01:39:00,74.0,51.0,31.89,WNW,290,2.0,4.0,44,0.00,,,0.00,weatherlink.com 1.10,2013-07-03 07:39:00,
2013-07-03 01:54:00,73.7,52.0,31.88,South,183,1.0,5.0,46,0.00,,,0.00,weatherlink.com 1.10,2013-07-03 07:54:00,
2013-07-03 02:09:00,73.1,49.0,31.89,West,261,1.0,3.0,43,0.00,,,0.00,weatherlink.com 1.10,2013-07-03 08:09:00,
2013-07-03 02:24:00,72.0,48.0,31.89,WNW,294,6.0,7.0,42,0.00,,,0.00,weatherlink.com 1.10,2013-07-03 08:24:00,
2013-07-03 02:39:00,71.2,49.0,31.89,WNW,300,4.0,10.0,45,0.00,,,0.00,weatherlink.com 1.10,2013-07-03 08:39:00,
2013-07-03 02:54:00,70.3,49.0,31.89,West,275,7.0,11.0,47,0.00,,,0.00,weatherlink.com 1.10,2013-07-03 08:54:00,
2013-07-03 03:25:00,69.5,50.0,31.90,WNW,300,6.0,13.0,51,0.00,,,0.00,weatherlink.com 1.10,2013-07-03 09:25:00,
2013-07-03 03:40:00,69.5,50.0,31.90,NW,306,6.0,14.0,50,0.00,,,0.00,weatherlink.com 1.10,2013-07-03 09:40:00,
2013-07-03 03:55:00,69.0,51.0,31.90,West,279,9.0,14.0,53,0.00,,,0.00,weatherlink.com 1.10,2013-07-03 09:55:00,
2013-07-03 04:10:00,69.1,51.0,31.91,WNW,288,12.0,18.0,53,0.00,,,0.00,weatherlink.com 1.10,2013-07-03 10:10:00,
2013-07-03 04:25:00,69.8,51.0,31.91,WNW,294,11.0,18.0,51,0.00,,,0.00,weatherlink.com 1.10,2013-07-03 10:25:00,
2013-07-03 04:40:00,70.4,51.0,31.91,WNW,290,11.0,17.0,50,0.00,,,0.00,weatherlink.com 1.10,2013-07-03 10:40:00,
2013-07-03 04:55:00,70.3,51.0,31.92,NW,306,7.0,14.0,51,0.00,,,0.00,weatherlink.com 1.10,2013-07-03 10:55:00,
2013-07-03 05:10:00,70.3,51.0,31.92,WNW,293,9.0,12.0,50,0.00,,,0.00,weatherlink.com 1.10,2013-07-03 11:10:00,
2013-07-03 05:25:00,69.9,51.0,31.92,WNW,290,6.0,10.0,52,0.00,,,0.00,weatherlink.com 1.10,2013-07-03 11:25:00,
2013-07-03 05:55:00,69.0,52.0,31.93,WNW,290,4.0,8.0,54,0.00,,,0.00,weatherlink.com 1.10,2013-07-03 11:55:00,
2013-07-03 06:10:00,68.8,52.0,31.93,West,280,10.0,11.0,55,0.00,,,0.00,weatherlink.com 1.10,2013-07-03 12:10:00,
2013-07-03 06:25:00,68.3,52.0,31.93,WNW,290,6.0,11.0,57,0.00,,,0.00,weatherlink.com 1.10,2013-07-03 12:25:00,
2013-07-03 06:40:00,68.6,52.0,31.93,West,276,8.0,12.0,56,0.00,,,0.00,weatherlink.com 1.10,2013-07-03 12:40:00,
2013-07-03 06:55:00,68.5,52.0,31.93,WNW,285,8.0,14.0,56,0.00,,,0.00,weatherlink.com 1.10,2013-07-03 12:55:00,
2013-07-03 07:10:00,68.6,52.0,31.93,West,270,4.0,10.0,56,0.00,,,0.00,weatherlink.com 1.10,2013-07-03 13:10:00,
2013-07-03 07:25:00,69.4,51.0,31.93,West,268,3.0,11.0,53,0.00,,,0.00,weatherlink.com 1.10,2013-07-03 13:25:00,
2013-07-03 07:40:00,69.5,51.0,31.93,WSW,257,2.0,6.0,53,0.00,,,0.00,weatherlink.com 1.10,2013-07-03 13:40:00,
2013-07-03 08:10:00,69.6,52.0,31.94,SSE,162,4.0,4.0,53,0.00,,,0.00,weatherlink.com 1.10,2013-07-03 14:10:00,
2013-07-03 08:25:00,70.4,53.0,31.95,SSE,155,1.0,4.0,54,0.00,,,0.00,weatherlink.com 1.10,2013-07-03 14:25:00,
2013-07-03 08:40:00,70.5,52.0,31.94,SW,229,2.0,6.0,52,0.00,,,0.00,weatherlink.com 1.10,2013-07-03 14:40:00,
2013-07-03 08:56:00,70.6,49.0,31.93,NNW,338,6.0,8.0,46,0.00,,,0.00,weatherlink.com 1.10,2013-07-03 14:56:00,
2013-07-03 09:41:00,70.5,51.0,31.94,NNW,331,7.0,14.0,50,0.00,,,0.00,weatherlink.com 1.10,2013-07-03 15:41:00,
2013-07-03 09:56:00,70.1,51.0,31.93,NW,306,11.0,12.0,51,0.00,,,0.00,weatherlink.com 1.10,2013-07-03 15:56:00,
2013-07-03 10:11:00,70.0,51.0,31.93,WNW,302,8.0,13.0,52,0.00,,,0.00,weatherlink.com 1.10,2013-07-03 16:11:00,
2013-07-03 10:26:00,70.3,52.0,31.93,NW,310,6.0,11.0,52,0.00,,,0.00,weatherlink.com 1.10,2013-07-03 16:26:00,
2013-07-03 10:41:00,71.0,52.0,31.93,West,281,7.0,11.0,51,0.00,,,0.00,weatherlink.com 1.10,2013-07-03 16:41:00,
2013-07-03 10:56:00,72.0,52.0,31.92,NW,304,3.0,7.0,49,0.00,,,0.00,weatherlink.com 1.10,2013-07-03 16:56:00,
2013-07-03 11:11:00,71.6,51.0,31.92,NW,310,3.0,9.0,49,0.00,,,0.00,weatherlink.com 1.10,2013-07-03 17:11:00,
2013-07-03 11:26:00,72.1,51.0,31.91,NW,312,5.0,10.0,48,0.00,,,0.00,weatherlink.com 1.10,2013-07-03 17:26:00,
2013-07-03 11:58:00,73.8,52.0,31.91,WNW,290,4.0,9.0,46,0.00,,,0.00,weatherlink.com 1.10,2013-07-03 17:58:00,
2013-07-03 12:11:00,74.3,50.0,31.91,WNW,287,3.0,11.0,42,0.00,,,0.00,weatherlink.com 1.10,2013-07-03 18:11:00,
2013-07-03 12:26:00,75.1,50.0,31.90,WSW,246,5.0,13.0,42,0.00,,,0.00,weatherlink.com 1.10,2013-07-03 18:26:00,
2013-07-03 12:41:00,74.7,49.0,31.89,WNW,301,9.0,15.0,41,0.00,,,0.00,weatherlink.com 1.10,2013-07-03 18:41:00,
2013-07-03 13:12:00,75.7,50.0,31.89,WNW,296,7.0,19.0,40,0.00,,,0.00,weatherlink.com 1.10,2013-07-03 19:12:00,
2013-07-03 13:26:00,76.5,50.0,31.88,WNW,285,8.0,13.0,39,0.00,,,0.00,weatherlink.com 1.10,2013-07-03 19:26:00,
2013-07-03 13:56:00,76.9,47.0,31.88,WNW,295,10.0,13.0,35,0.00,,,0.00,weatherlink.com 1.10,2013-07-03 19:56:00,
2013-07-03 14:41:00,77.6,46.0,31.87,NW,308,7.0,17.0,33,0.00,,,0.00,weatherlink.com 1.10,2013-07-03 20:41:00,
2013-07-03 14:56:00,77.4,46.0,31.87,WNW,288,8.0,17.0,33,0.00,,,0.00,weatherlink.com 1.10,2013-07-03 20:56:00,
2013-07-03 15:11:00,78.5,47.0,31.87,NW,312,5.0,11.0,33,0.00,,,0.00,weatherlink.com 1.10,2013-07-03 21:11:00,
2013-07-03 15:26:00,79.2,48.0,31.86,WNW,286,5.0,15.0,34,0.00,,,0.00,weatherlink.com 1.10,2013-07-03 21:26:00,
2013-07-03 15:42:00,79.1,48.0,31.85,West,277,3.0,14.0,33,0.00,,,0.00,weatherlink.com 1.10,2013-07-03 21:42:00,
2013-07-03 15:57:00,78.7,47.0,31.85,West,269,5.0,16.0,33,0.00,,,0.00,weatherlink.com 1.10,2013-07-03 21:57:00,
2013-07-03 16:12:00,79.3,46.0,31.84,SSW,206,5.0,14.0,31,0.00,,,0.00,weatherlink.com 1.10,2013-07-03 22:12:00,
2013-07-03 16:27:00,-999.0,-99.9,31.84,North,-999,-999.0,-999.0,-999,0.00,,,0.00,weatherlink.com 1.10,2013-07-03 22:27:00,
2013-07-03 16:42:00,79.1,48.0,31.84,WNW,291,7.0,20.0,33,0.00,,,0.00,weatherlink.com 1.10,2013-07-03 22:42:00,
2013-07-03 16:57:00,79.0,47.0,31.84,West,277,5.0,14.0,32,0.00,,,0.00,weatherlink.com 1.10,2013-07-03 22:57:00,
2013-07-03 17:12:00,79.1,48.0,31.83,West,278,11.0,17.0,34,0.00,,,0.00,weatherlink.com 1.10,2013-07-03 23:12:00,
2013-07-03 17:27:00,78.6,48.0,31.83,NNW,336,3.0,14.0,34,0.00,,,0.00,weatherlink.com 1.10,2013-07-03 23:27:00,
2013-07-03 17:57:00,78.3,47.0,31.82,West,281,13.0,16.0,33,0.00,,,0.00,weatherlink.com 1.10,2013-07-03 23:57:00,
2013-07-03 18:12:00,78.4,49.0,31.82,WSW,256,4.0,13.0,35,0.00,,,0.00,weatherlink.com 1.10,2013-07-04 00:12:00,
2013-07-03 18:27:00,77.8,45.0,31.82,West,261,4.0,15.0,31,0.00,,,0.00,weatherlink.com 1.10,2013-07-04 00:27:00,
2013-07-03 19:12:00,76.7,45.0,31.82,WNW,297,6.0,14.0,33,0.00,,,0.00,weatherlink.com 1.10,2013-07-04 01:12:00,
2013-07-03 19:27:00,76.4,44.0,31.82,WNW,292,5.0,15.0,32,0.00,,,0.00,weatherlink.com 1.10,2013-07-04 01:27:00,
2013-07-03 19:42:00,75.8,45.0,31.82,WNW,294,4.0,13.0,33,0.00,,,0.00,weatherlink.com 1.10,2013-07-04 01:42:00,
2013-07-03 19:57:00,75.0,45.0,31.82,WNW,302,4.0,16.0,34,0.00,,,0.00,weatherlink.com 1.10,2013-07-04 01:57:00,
2013-07-03 23:30:00,68.2,43.0,31.89,NW,315,12.0,14.0,40,0.00,,,0.00,weatherlink.com 1.10,2013-07-04 05:30:00,
2013-07-03 23:42:00,67.9,43.0,31.90,NW,306,9.0,18.0,40,0.00,,,0.00,weatherlink.com 1.10,2013-07-04 05:42:00,
2013-07-03 23:57:00,67.7,43.0,31.90,NW,315,10.0,12.0,41,0.00,,,0.00,weatherlink.com 1.10,2013-07-04 05:57:00,